カタログに戻る

DELTA 1 R/B

運用中HEO
NORAD 4377·ROCKET BODY·🇺🇸 United States

打ち上げ Apr 23, 1970 から Cape Canaveral Space Force Station

Loading…

次のパス (今後24時間)

TLE

最新Source: Space-Track

元期: Sep 14, 2026, 11:14 UTC

1 04377U 70032B   26257.46808917  .00012077  00000-0  12249-2 0  9995
2 04377  26.7142 314.3989 5680527  81.2734 335.8542  4.56229346637704

AllMySatでDELTA 1 R/Bをリアルタイム追跡

Download on the App Store